Date String (YYYY-MM-DD hh:mm:ss) UTC,Instrument flags,Ambient pressure (hPa),Sample flow (lpm),Bypass flow (lpm),Sample temperature (°C),Ambient temperature (°C),ASC tube jacket temperature (°C),LED temperature (°C),Box temperature (°C),Sample RH (%),Span deviation,Mass concentration (μg/m³),Mass concentration (μg/m³),Mass concentration (μg/m³)
DateTimeUTC,F1_M11,P_M11,Q1_M11,Q2_M11,T1_M11,T2_M11,T3_M11,T4_M11,T5_M11,U1_M11,ZSPAN_M11,X2_M11,X0_M11,X1_M11
2022-05-31 03:00:00,,0820.6,5.01,0.00,24.0,21.4,00.0,34.1,25.0,14.5,0000.0,0000.74,0001.26,0000.40
2022-05-31 03:01:00,,0820.6,4.98,0.00,23.8,21.2,00.0,34.0,24.9,14.5,0000.0,0000.75,0001.29,0000.40
2022-05-31 03:02:00,,0820.6,5.01,0.00,23.7,21.1,00.0,33.8,24.8,14.6,0000.0,0000.74,0001.25,0000.41
2022-05-31 03:03:00,,0820.7,5.01,0.00,23.6,21.1,00.0,33.7,24.7,14.9,0000.0,0000.75,0001.32,0000.42
2022-05-31 03:04:00,,0820.7,4.99,0.00,23.5,21.1,00.0,33.6,24.7,14.6,0000.0,0000.77,0001.38,0000.43
2022-05-31 03:05:00,,0820.7,5.00,0.00,23.5,21.1,00.0,33.5,24.7,14.7,0000.0,0000.78,0001.40,0000.43
2022-05-31 03:06:00,,0820.7,5.01,0.00,23.4,21.0,00.0,33.4,24.6,14.8,0000.0,0000.78,0001.43,0000.42
2022-05-31 03:07:00,,0820.8,4.99,0.00,23.3,20.9,00.0,33.2,24.5,14.7,0000.0,0000.78,0001.42,0000.42
2022-05-31 03:08:00,,0820.9,5.01,0.00,23.2,21.0,00.0,33.1,24.5,14.8,0000.0,0000.80,0001.59,0000.42
2022-05-31 03:09:00,,0820.8,4.99,0.00,23.2,21.1,00.0,33.1,24.6,14.9,0000.0,0000.79,0001.67,0000.42
2022-05-31 03:10:00,,0820.9,5.01,0.00,23.2,21.2,00.0,33.0,24.7,15.1,0000.0,0000.77,0001.93,0000.42
2022-05-31 03:11:00,,0820.9,5.00,0.00,23.2,21.3,00.0,32.9,24.8,15.1,0000.0,0000.78,0002.21,0000.43
2022-05-31 03:12:00,,0820.8,5.00,0.00,23.2,21.5,00.0,32.8,24.9,15.1,0000.0,0000.78,0002.21,0000.43
2022-05-31 03:13:00,,0820.9,4.99,0.00,23.3,21.6,00.0,32.8,24.9,14.7,0000.0,0000.79,0002.23,0000.44
2022-05-31 03:14:00,,0820.9,5.00,0.00,23.3,21.7,00.0,32.8,25.0,14.7,0000.0,0000.78,0002.19,0000.44
2022-05-31 03:15:00,,0820.9,5.00,0.00,23.3,21.9,00.0,32.7,25.0,14.7,0000.0,0000.81,0002.28,0000.44
2022-05-31 03:16:00,,0821.0,5.00,0.00,23.3,22.0,00.0,32.7,25.1,15.0,0000.0,0000.83,0002.32,0000.45
2022-05-31 03:17:00,,0821.0,5.00,0.00,23.4,22.1,00.0,32.7,25.1,15.3,0000.0,0000.84,0002.31,0000.47
2022-05-31 03:18:00,,0821.0,5.00,0.00,23.4,22.2,00.0,32.7,25.2,14.8,0000.0,0000.85,0002.32,0000.48
2022-05-31 03:19:00,,0820.9,4.99,0.00,23.5,22.3,00.0,32.7,25.3,14.7,0000.0,0000.85,0002.24,0000.49
2022-05-31 03:20:00,,0820.9,5.00,0.00,23.5,22.4,00.0,32.6,25.4,14.3,0000.0,0000.86,0002.16,0000.50
2022-05-31 03:21:00,,0821.0,4.99,0.00,23.6,22.5,00.0,32.6,25.4,14.2,0000.0,0000.85,0001.83,0000.51
2022-05-31 03:22:00,,0821.0,5.01,0.00,23.6,22.6,00.0,32.6,25.5,14.2,0000.0,0000.86,0001.64,0000.51
2022-05-31 03:23:00,,0821.0,4.99,0.00,23.6,22.7,00.0,32.7,25.5,14.1,0000.0,0000.86,0001.63,0000.50
2022-05-31 03:24:00,,0821.0,4.99,0.00,23.7,22.8,00.0,32.7,25.6,14.1,0000.0,0000.84,0001.57,0000.50
2022-05-31 03:25:00,,0821.0,5.00,0.00,23.7,22.8,00.0,32.7,25.6,14.4,0000.0,0000.85,0001.60,0000.50
2022-05-31 03:26:00,,0821.0,5.02,0.00,23.8,22.9,00.0,32.7,25.7,14.2,0000.0,0000.81,0001.47,0000.50
2022-05-31 03:27:00,,0821.0,5.00,0.00,23.8,23.0,00.0,32.7,25.7,14.1,0000.0,0000.78,0001.42,0000.49
2022-05-31 03:28:00,,0821.0,5.00,0.00,23.9,23.1,00.0,32.7,25.8,14.4,0000.0,0000.75,0001.35,0000.48
2022-05-31 03:29:00,,0821.0,5.01,0.00,23.9,23.1,00.0,32.7,25.9,14.2,0000.0,0000.73,0001.33,0000.49
2022-05-31 03:30:00,,0821.0,5.00,0.00,23.9,23.2,00.0,32.8,25.9,14.3,0000.0,0000.70,0001.28,0000.48
2022-05-31 03:31:00,,0821.0,5.00,0.00,24.0,23.2,00.0,32.8,26.0,14.1,0000.0,0000.71,0001.36,0000.48
2022-05-31 03:32:00,,0821.0,4.99,0.00,24.0,23.3,00.0,32.8,26.0,13.8,0000.0,0000.70,0001.36,0000.47
2022-05-31 03:33:00,,0821.0,5.00,0.00,24.1,23.3,00.0,32.8,26.1,13.6,0000.0,0000.67,0001.26,0000.48
2022-05-31 03:34:00,,0821.0,5.00,0.00,24.1,23.4,00.0,32.9,26.1,13.9,0000.0,0000.66,0001.23,0000.47
2022-05-31 03:35:00,,0821.0,4.99,0.00,24.2,23.4,00.0,32.9,26.2,14.0,0000.0,0000.66,0001.25,0000.47
2022-05-31 03:36:00,,0821.1,5.01,0.00,24.2,23.5,00.0,32.9,26.2,13.9,0000.0,0000.65,0001.20,0000.47
2022-05-31 03:37:00,,0821.1,4.99,0.00,24.2,23.5,00.0,33.0,26.3,14.0,0000.0,0000.65,0001.18,0000.48
2022-05-31 03:38:00,,0821.1,5.00,0.00,24.3,23.6,00.0,33.0,26.3,14.4,0000.0,0000.70,0001.27,0000.48
2022-05-31 03:39:00,,0821.1,4.99,0.00,24.3,23.6,00.0,33.0,26.3,14.4,0000.0,0000.72,0001.31,0000.49
2022-05-31 03:40:00,,0821.1,5.00,0.00,24.3,23.6,00.0,33.1,26.3,14.6,0000.0,0000.71,0001.29,0000.48
2022-05-31 03:41:00,,0821.2,5.01,0.00,24.4,23.6,00.0,33.1,26.3,14.2,0000.0,0000.72,0001.35,0000.48
2022-05-31 03:42:00,,0821.1,4.99,0.00,24.4,23.7,00.0,33.1,26.4,14.2,0000.0,0000.70,0001.22,0000.48
2022-05-31 03:43:00,,0821.2,5.01,0.00,24.4,23.7,00.0,33.1,26.4,14.3,0000.0,0000.70,0001.18,0000.48
2022-05-31 03:44:00,,0821.2,4.99,0.00,24.4,23.7,00.0,33.2,26.5,14.0,0000.0,0000.72,0001.23,0000.49
2022-05-31 03:45:00,,0821.3,5.01,0.00,24.5,23.7,00.0,33.2,26.5,14.2,0000.0,0000.73,0001.26,0000.49
2022-05-31 03:46:00,,0821.3,5.00,0.00,24.5,23.7,00.0,33.2,26.5,14.4,0000.0,0000.73,0001.32,0000.48
2022-05-31 03:47:00,,0821.3,4.99,0.00,24.5,23.8,00.0,33.3,26.5,13.9,0000.0,0000.73,0001.33,0000.48
2022-05-31 03:48:00,,0821.3,5.01,0.00,24.6,23.8,00.0,33.3,26.6,14.4,0000.0,0000.75,0001.42,0000.48
2022-05-31 03:49:00,,0821.4,5.00,0.00,24.6,23.8,00.0,33.3,26.6,14.5,0000.0,0000.69,0001.31,0000.47
2022-05-31 03:50:00,,0821.4,5.01,0.00,24.6,23.8,00.0,33.3,26.6,14.4,0000.0,0000.68,0001.30,0000.47
2022-05-31 03:51:00,,0821.4,4.99,0.00,24.6,23.8,00.0,33.4,26.6,14.3,0000.0,0000.71,0001.33,0000.47
2022-05-31 03:52:00,,0821.4,5.01,0.00,24.6,23.8,00.0,33.4,26.6,14.5,0000.0,0000.68,0001.20,0000.46
2022-05-31 03:53:00,,0821.4,4.99,0.00,24.6,23.8,00.0,33.4,26.6,14.4,0000.0,0000.66,0001.17,0000.45
2022-05-31 03:54:00,,0821.5,5.01,0.00,24.7,23.8,00.0,33.4,26.6,14.8,0000.0,0000.67,0001.17,0000.46
2022-05-31 03:55:00,,0821.4,5.01,0.00,24.7,23.8,00.0,33.4,26.7,14.5,0000.0,0000.68,0001.22,0000.46
2022-05-31 03:56:00,,0821.4,5.00,0.00,24.7,23.8,00.0,33.5,26.7,14.4,0000.0,0000.68,0001.21,0000.46
2022-05-31 03:57:00,,0821.4,5.00,0.00,24.7,23.8,00.0,33.5,26.7,14.6,0000.0,0000.70,0001.19,0000.47
2022-05-31 03:58:00,,0821.4,5.01,0.00,24.7,23.8,00.0,33.5,26.7,14.4,0000.0,0000.70,0001.19,0000.47
2022-05-31 03:59:00,,0821.4,4.99,0.00,24.7,23.8,00.0,33.5,26.7,14.7,0000.0,0000.68,0001.15,0000.47
